Probability
0 0 0 0 0 0 0 0 0 0 0 0 0 0 0 0 0 0 0 0 0 0 0 0 0 0 0 0 0 0 0 0 0 0 0 0 0 0 0 0 1 2 3
0 0 0 0 0 0 0 0 0 0 0 0 0 0 0 0 0 0 0 0 0 0 0 0 0 0 0 0 1 1 0 0 0 0 0 0 0 0 0 0 1 2 3
0 0 0 0 0 0 0 0 0 0 0 0 0 0 0 0 0 0 0 0 0 0 0 0 0 0 0 1 2 1 1 1 1 0 0 0 0 0 0 0 1 2 3
0 0 0 0 0 0 0 0 0 0 0 0 0 0 0 0 0 0 0 0 0 0 0 0 0 0 0 1 1 1 1 1 1 0 0 0 0 0 0 0 0 1 2
0 0 0 0 0 0 0 0 0 0 0 0 0 0 0 0 0 0 0 0 0 0 0 0 0 0 0 0 0 0 0 0 0 0 0 0 0 0 0 0 0 1 1
0 0 0 0 0 0 0 0 0 0 0 0 0 0 0 0 0 0 0 0 0 0 0 0 0 0 0 0 0 0 0 0 0 0 0 0 0 0 0 0 0 1 1
0 0 0 0 0 0 0 0 0 0 0 0 0 0 0 0 0 0 0 0 0 0 0 0 0 0 0 0 0 0 0 0 0 0 0 0 0 0 0 0 0 0 0
0 0 0 0 0 0 0 0 0 0 0 0 0 0 0 0 0 0 0 0 0 0 0 0 0 0 0 0 0 0 0 0 0 1 0 0 0 0 0 0 0 0 0
0 0 0 0 0 0 0 0 0 0 0 0 0 0 0 0 0 0 0 0 0 0 0 0 0 0 0 0 0 0 0 0 0 0 0 0 0 0 0 1 1 0 0
0 0 0 0 0 0 0 0 0 0 0 0 0 0 0 0 0 0 0 0 0 0 0 0 0 0 0 0 0 0 0 0 0 0 0 0 0 0 0 1 1 0 0
0 0 0 0 0 0 0 0 0 0 0 0 0 0 0 0 0 0 0 0 0 0 0 0 0 0 0 0 0 0 0 0 0 0 0 0 0 0 0 0 0 0 0
0 0 0 0 0 0 0 0 0 0 0 0 0 0 0 0 0 0 0 0 0 0 0 0 0 0 0 0 0 0 0 0 0 0 0 0 0 0 0 0 0 0 0
0 0 0 0 0 0 0 0 0 0 0 0 0 0 0 0 0 0 0 0 0 0 0 0 0 0 0 0 0 0 0 0 0 0 0 0 0 0 0 0 0 0 0
0 0 0 0 0 0 0 0 0 0 0 0 0 0 0 0 0 0 0 0 0 0 0 0 0 0 0 0 0 0 0 0 0 0 0 0 0 0 0 0 0 0 0
0 0 0 0 0 0 0 0 0 0 0 0 0 0 0 0 0 0 0 0 0 0 0 0 0 0 0 0 0 0 0 0 0 0 0 0 0 0 0 0 0 0 0
0 0 0 0 0 0 0 0 0 0 0 0 0 0 0 0 0 0 0 0 0 0 0 0 0 0 0 0 0 0 0 0 0 0 0 0 0 0 0 0 0 0 0
0 0 0 0 0 0 0 0 0 0 0 0 0 0 0 0 0 0 0 0 0 0 0 0 0 0 0 0 0 0 0 0 0 0 0 0 0 0 0 0 0 0 0
0 0 0 0 0 0 0 0 0 0 0 0 0 0 0 0 0 0 0 0 0 0 0 0 0 0 0 0 0 0 0 0 0 0 0 0 0 0 0 0 0 0 0
0 0 0 0 0 0 0 0 0 0 0 0 0 0 0 0 0 0 0 0 0 0 0 0 0 0 0 0 0 0 0 0 0 0 0 0 0 0 0 0 0 0 0
0 0 0 0 0 0 0 0 0 0 0 0 0 0 0 0 0 0 0 0 0 0 0 0 0 0 0 0 0 0 0 0 0 0 0 0 0 0 0 0 0 0 0
0 0 0 0 0 0 0 0 0 0 0 0 0 0 0 0 0 0 0 0 0 0 0 0 0 0 0 0 0 0 0 0 0 0 0 0 0 0 0 0 0 0 0
0 0 0 0 0 0 0 0 0 0 0 0 0 0 0 0 0 0 0 0 0 0 0 0 0 0 0 0 0 0 0 0 0 0 0 0 0 0 0 0 0 0 0
0 0 0 0 0 0 0 0 0 0 0 0 0 0 0 0 0 0 0 0 0 0 0 0 0 0 0 0 0 0 0 0 0 0 0 0 0 0 0 0 0 0 0
0 0 0 0 0 0 0 0 0 0 0 0 0 0 0 0 0 0 0 0 0 0 0 0 0 0 0 0 0 0 0 0 0 0 0 0 0 0 0 0 0 0 0
0 0 0 0 0 0 0 0 0 0 0 0 0 0 0 0 0 0 0 0 0 0 0 0 0 0 0 0 0 0 0 0 0 0 0 0 0 0 0 0 0 0 0
0 0 0 0 0 0 0 0 0 0 0 0 0 0 0 0 0 0 0 0 0 0 0 0 0 0 0 0 0 0 0 0 0 0 0 0 0 0 0 0 0 0 0
Wind_Speed
2 1 1 1 1 1 1 0 0 1 1 1 0 0 0 0 1 1 1 2 3 3 4 4 4 4 4 3 3 3 3 3 2 2 2 1 1 2 1 2 2 2 2
2 2 1 1 1 0 0 0 0 0 0 0 1 1 0 0 1 1 1 2 3 3 4 5 4 4 4 4 4 4 4 3 3 3 3 2 2 2 3 2 3 2 2
2 2 2 1 1 0 0 1 1 1 1 1 1 1 1 1 1 1 1 1 2 3 4 4 5 4 4 5 5 4 4 4 4 3 3 3 3 3 3 3 3 3 2
2 1 1 1 1 1 0 1 1 1 1 1 1 1 1 1 1 1 1 1 1 2 3 3 3 4 4 4 5 5 4 4 4 3 3 3 4 4 3 3 4 4 3
2 1 1 1 1 1 0 0 1 1 1 1 1 1 1 1 1 1 1 1 1 1 1 3 3 3 4 4 5 5 5 4 4 4 4 4 4 4 4 4 5 4 4
1 1 1 1 2 1 0 0 1 0 1 0 1 2 2 2 1 1 1 1 1 2 2 2 2 2 3 4 5 5 5 5 5 4 4 5 5 5 5 6 5 5 6
1 1 1 1 1 1 2 2 1 1 1 1 1 2 2 2 1 1 1 1 2 2 2 2 2 2 2 5 5 6 6 5 5 5 5 5 6 6 7 7 7 6 7
0 1 2 2 2 1 2 2 2 1 0 1 1 1 2 3 3 2 1 1 2 2 2 2 2 2 2 2 4 6 6 6 6 6 6 6 7 7 8 8 7 7 7
0 0 2 2 2 2 3 3 2 3 2 0 1 2 1 2 3 2 2 2 2 2 2 2 2 2 2 2 3 5 7 6 6 6 7 7 8 8 8 8 8 8 8
1 0 1 2 2 2 2 2 2 2 3 2 0 0 1 1 1 2 3 2 2 3 3 2 2 2 2 2 3 4 6 6 6 7 8 8 8 8 8 8 7 8 8
1 1 1 1 1 2 2 2 2 2 2 2 2 1 0 1 1 1 3 3 3 3 3 3 2 2 2 2 2 4 5 6 6 7 8 8 8 8 8 8 8 7 7
1 1 1 1 2 2 2 2 3 3 3 2 2 2 2 2 1 1 2 3 4 4 3 3 2 2 2 2 3 5 6 6 6 7 8 9 8 8 9 9 8 7 7
2 2 2 2 2 2 2 2 2 3 3 3 3 2 2 2 1 1 2 2 4 4 3 3 3 2 3 2 3 6 6 6 7 8 8 8 8 8 8 9 8 8 8
3 2 2 2 2 2 2 2 2 3 3 3 3 3 2 2 2 2 2 2 3 4 3 4 2 2 3 3 5 5 4 6 7 8 8 7 8 7 7 7 8 8 8
2 2 2 2 2 2 2 2 2 3 3 3 3 4 3 3 2 2 2 2 3 4 5 4 3 2 3 3 5 4 4 7 7 8 8 7 7 7 7 7 8 8 9
2 2 2 2 2 2 2 2 2 2 3 3 3 4 4 3 2 2 3 2 3 3 5 3 3 3 3 3 5 4 5 7 7 7 7 7 7 7 7 7 8 8 8
1 2 2 2 3 3 3 3 3 3 4 4 3 4 5 4 3 3 2 3 3 3 5 5 3 3 3 4 4 4 4 4 5 7 8 7 8 7 7 7 7 7 8
1 2 2 2 3 3 3 4 4 4 4 5 4 4 5 4 4 3 3 4 4 3 4 6 4 3 3 4 4 5 4 4 4 7 8 7 7 7 7 7 7 7 7
2 2 2 2 3 3 4 4 4 4 4 5 4 5 5 4 5 4 4 4 4 3 3 4 4 3 3 3 4 4 4 3 4 5 7 7 8 7 7 6 7 7 7
2 2 2 3 3 3 3 4 4 4 4 4 4 5 5 5 5 4 4 5 4 4 3 4 4 3 3 3 2 3 4 3 3 3 5 5 6 7 6 7 6 6 6
3 3 3 3 3 3 3 3 4 4 4 4 4 4 4 5 6 5 4 4 4 4 4 4 4 3 3 2 3 2 4 4 3 2 4 3 3 3 3 5 5 5 5
3 3 3 3 3 3 4 5 4 3 3 4 4 3 4 4 5 7 7 7 6 5 5 4 4 5 5 4 3 2 3 3 4 2 2 4 2 3 3 2 5 5 5
3 3 3 3 4 5 5 5 4 3 3 3 3 3 3 3 4 4 5 6 6 8 7 6 6 6 5 4 3 4 3 3 4 3 2 4 2 3 3 3 6 5 4
3 3 4 4 4 4 6 4 3 2 2 2 3 3 3 3 3 4 4 4 5 5 7 6 6 6 5 4 4 5 4 3 3 2 1 3 3 3 3 3 5 5 5
3 3 3 4 4 5 6 5 3 1 2 2 2 3 3 4 5 5 4 4 4 5 5 6 6 6 6 6 4 2 1 1 3 3 1 2 2 2 2 3 4 5 6
3 3 4 4 4 4 5 5 3 1 2 2 2 3 4 5 5 5 4 4 5 5 3 4 4 5 5 4 5 4 4 3 2 3 2 1 1 1 3 2 2 2 3
Wind_Direction
134 132 124 103 79 49 63 35 31 19 16 24 34 81 7 281 291 295 296 301 284 261 249 249 250 250 248 250 253 248 244 240 229 225 218 241 244 230 216 211 203 211 213
146 152 148 146 121 56 291 172 138 72 349 7 336 322 296 300 291 300 297 311 312 290 260 245 247 253 255 256 263 258 253 243 236 235 232 227 242 243 231 232 225 222 229
157 164 159 166 172 138 36 101 104 67 37 29 334 317 312 290 294 297 302 304 309 312 290 257 250 253 258 261 266 266 257 252 243 243 241 239 243 242 242 246 239 237 227
155 161 160 178 173 109 88 124 118 78 35 15 332 319 309 298 295 298 304 314 316 317 310 294 274 264 266 273 275 268 256 252 247 250 253 247 248 250 249 258 249 247 241
151 163 174 179 151 116 129 171 94 114 85 2 318 318 311 293 283 314 315 314 303 317 333 320 309 306 289 280 285 286 270 262 260 261 259 256 252 251 250 257 255 243 236
147 141 161 170 149 137 152 169 116 81 121 74 334 331 311 298 306 313 311 315 318 334 343 339 319 305 312 304 293 292 287 271 270 267 263 260 260 256 256 255 254 245 235
158 153 158 168 158 173 194 188 146 120 55 64 55 350 331 316 323 315 313 316 323 325 337 330 314 305 293 293 293 294 291 280 277 276 274 270 267 266 263 259 254 247 237
206 176 176 190 191 186 188 187 142 121 80 79 114 86 330 326 326 306 306 302 311 331 326 320 308 292 288 290 292 295 292 284 278 280 278 278 275 274 269 262 256 248 244
245 209 207 199 201 192 197 196 181 161 171 210 124 147 173 246 308 307 299 287 298 308 302 301 302 298 297 294 290 295 300 288 282 283 284 281 279 276 275 271 262 254 248
303 286 230 210 200 201 200 201 197 188 167 180 235 297 210 186 215 302 311 307 304 291 288 298 298 296 296 288 293 302 302 299 295 289 289 286 284 284 278 276 268 261 256
303 306 245 216 215 216 208 202 202 192 183 180 187 190 210 322 282 242 285 306 310 291 287 286 283 288 290 283 286 304 304 295 295 295 289 287 288 285 285 279 270 270 263
301 283 259 238 229 228 222 215 206 199 201 191 192 189 182 189 216 230 262 285 291 293 290 281 275 276 282 283 286 312 306 298 297 296 294 290 289 287 287 286 275 273 269
273 258 253 241 235 237 231 219 215 213 205 202 201 209 216 219 197 213 239 275 288 293 297 282 266 276 287 289 287 303 297 301 299 297 296 292 287 288 290 285 280 279 277
250 243 242 244 248 238 229 214 219 228 214 215 218 212 220 230 216 212 211 227 284 292 288 279 282 263 283 287 289 295 290 292 294 296 296 294 288 286 289 289 283 284 281
259 233 230 235 242 241 232 220 229 232 227 222 221 221 223 228 226 230 224 213 220 271 281 274 278 281 282 282 289 289 290 289 290 291 295 296 291 286 287 287 283 280 279
263 236 233 235 244 244 234 228 236 237 233 236 227 224 229 228 226 227 228 236 230 236 264 270 271 287 289 290 292 289 281 290 286 288 291 296 296 288 285 281 282 283 284
266 242 231 226 233 242 240 233 237 233 234 241 238 230 235 226 226 230 233 238 240 237 259 281 278 288 281 284 294 290 283 278 279 284 286 289 289 288 282 279 280 281 281
281 268 244 234 234 238 239 236 240 237 234 238 241 238 240 230 228 229 229 236 241 239 247 271 286 287 281 280 284 281 285 280 280 285 284 287 288 290 283 281 283 282 279
303 301 273 249 246 242 239 239 241 243 243 245 244 239 244 234 234 234 233 236 243 246 243 256 275 282 283 289 297 292 287 285 287 289 285 286 288 288 289 287 287 284 279
305 299 285 269 261 253 246 246 247 247 248 253 250 243 241 236 238 238 235 236 239 244 245 251 265 279 281 289 288 293 298 294 290 306 292 289 288 290 298 297 292 285 277
311 303 292 287 281 263 251 249 254 252 251 256 257 250 248 252 252 248 246 239 231 236 239 245 255 270 271 281 269 278 275 295 286 292 295 288 287 290 293 294 293 294 286
320 315 302 289 287 278 275 264 261 256 257 256 262 265 258 250 257 256 253 249 239 230 231 237 245 250 258 260 267 269 275 295 289 301 294 286 280 273 279 284 300 296 286
316 309 300 288 281 283 285 276 268 263 256 256 262 266 269 266 258 255 257 257 254 250 239 234 241 246 250 246 246 253 252 260 267 282 294 280 277 271 278 283 298 297 298
311 305 303 296 293 296 294 290 288 271 261 262 262 261 268 274 270 267 253 252 256 259 253 245 246 250 250 242 226 233 243 263 286 285 259 269 276 270 285 281 292 295 299
311 310 310 311 306 306 306 302 302 279 269 271 274 272 266 264 276 274 250 246 260 269 273 264 263 266 263 255 237 220 225 236 269 271 254 255 271 286 288 283 290 300 303
309 315 317 316 308 305 313 321 314 276 269 275 278 280 281 282 281 275 244 235 248 258 268 280 278 275 265 251 234 215 209 217 241 263 247 228 256 322 304 294 297 312 310